When you browse on this site, cookies collect data to enhance your experience and personalize the content and advertising you see.
Visit our Privacy Policy to learn more. By continuing to use the site, you agree to this use of cookies and data.
  • In Portugal
  • List of Countries
  • For 7 days
  • Water Temperature
  • Weather Map
  • Weather Widgets
  • user-avatar
    Login

    Hourly Weather Lleida

    Today, 20 August, Tuesday

    Time Temperature Precipitation Wind Pressure Humidity
    00:00 +25°C° 0.2 mm 1 mps 748 mmHg 75%
    01:00 +25°C° 0.1 mm 1 mps 748 mmHg 73%
    02:00 +24°C° 0.1 mm 1 mps 748 mmHg 72%
    03:00 +24°C° 0.1 mm 1 mps 748 mmHg 70%
    04:00 +24°C° 0 mm 2 mps 748 mmHg 69%
    05:00 +24°C° 0 mm 3 mps 748 mmHg 68%
    06:00 +22°C° 0 mm 3 mps 748 mmHg 66%
    07:00 +22°C° 0.3 mm 4 mps 749 mmHg 67%
    08:00 +22°C° 0.3 mm 4 mps 749 mmHg 67%
    09:00 +22°C° 0.3 mm 5 mps 750 mmHg 68%
    10:00 +22°C° 0.3 mm 4 mps 750 mmHg 66%
    11:00 +23°C° 0.3 mm 4 mps 750 mmHg 64%
    12:00 +24°C° 0.3 mm 3 mps 750 mmHg 62%
    13:00 +26°C° 0 mm 3 mps 750 mmHg 55%
    14:00 +28°C° 0 mm 3 mps 750 mmHg 48%
    15:00 +30°C° 0 mm 3 mps 750 mmHg 41%
    16:00 +29°C° 0 mm 3 mps 750 mmHg 43%
    17:00 +29°C° 0 mm 2 mps 750 mmHg 44%
    18:00 +29°C° 0 mm 2 mps 750 mmHg 45%
    19:00 +27°C° 0 mm 2 mps 751 mmHg 53%
    20:00 +25°C° 0 mm 3 mps 751 mmHg 61%
    21:00 +24°C° 0 mm 3 mps 751 mmHg 69%
    22:00 +23°C° 0 mm 2 mps 751 mmHg 72%
    23:00 +21°C° 0 mm 2 mps 751 mmHg 76%

    Tomorrow, 21 August, Wednesday

    Time Temperature Precipitation Wind Pressure Humidity
    00:00 +21°C° 0 mm 2 mps 751 mmHg 79%
    01:00 +21°C° 0 mm 2 mps 751 mmHg 80%
    02:00 +21°C° 0 mm 1 mps 751 mmHg 80%
    03:00 +21°C° 0 mm 1 mps 751 mmHg 81%
    04:00 +21°C° 0 mm 1 mps 751 mmHg 79%
    05:00 +21°C° 0 mm 1 mps 750 mmHg 78%
    06:00 +21°C° 0 mm 1 mps 750 mmHg 76%
    07:00 +22°C° 0 mm 1 mps 750 mmHg 68%
    08:00 +24°C° 0 mm 2 mps 750 mmHg 60%
    09:00 +26°C° 0 mm 2 mps 750 mmHg 51%
    10:00 +27°C° 0 mm 2 mps 750 mmHg 47%
    11:00 +29°C° 0 mm 2 mps 749 mmHg 43%
    12:00 +30°C° 0 mm 2 mps 749 mmHg 39%
    13:00 +31°C° 0 mm 2 mps 749 mmHg 37%
    14:00 +32°C° 0 mm 2 mps 749 mmHg 35%
    15:00 +32°C° 0 mm 2 mps 748 mmHg 32%
    16:00 +32°C° 0 mm 2 mps 748 mmHg 35%
    17:00 +31°C° 0 mm 2 mps 748 mmHg 37%
    18:00 +30°C° 0 mm 2 mps 748 mmHg 40%
    19:00 +29°C° 0 mm 2 mps 749 mmHg 48%
    20:00 +27°C° 0 mm 1 mps 749 mmHg 57%
    21:00 +25°C° 0 mm 1 mps 750 mmHg 65%
    22:00 +24°C° 0 mm 1 mps 750 mmHg 67%
    23:00 +24°C° 0 mm 1 mps 750 mmHg 70%

    Day after tomorrow, 22 August, Thursday

    Time Temperature Precipitation Wind Pressure Humidity
    00:00 +23°C° 0 mm 1 mps 750 mmHg 72%
    01:00 +23°C° 0 mm 1 mps 750 mmHg 74%
    02:00 +23°C° 0 mm 1 mps 749 mmHg 75%
    03:00 +22°C° 0 mm 1 mps 749 mmHg 76%
    04:00 +22°C° 0 mm 1 mps 750 mmHg 74%
    05:00 +22°C° 0 mm 1 mps 750 mmHg 72%
    06:00 +22°C° 0 mm 1 mps 750 mmHg 70%
    07:00 +24°C° 0 mm 1 mps 750 mmHg 62%
    08:00 +26°C° 0 mm 1 mps 750 mmHg 55%
    09:00 +28°C° 0 mm 2 mps 750 mmHg 47%
    10:00 +29°C° 0 mm 2 mps 750 mmHg 42%
    11:00 +31°C° 0 mm 2 mps 750 mmHg 37%
    12:00 +33°C° 0 mm 3 mps 750 mmHg 32%
    13:00 +34°C° 0 mm 3 mps 750 mmHg 28%
    14:00 +35°C° 0 mm 3 mps 749 mmHg 25%
    15:00 +36°C° 0 mm 3 mps 749 mmHg 21%
    16:00 +35°C° 0 mm 3 mps 749 mmHg 22%
    17:00 +34°C° 0 mm 3 mps 749 mmHg 24%
    18:00 +33°C° 0 mm 3 mps 749 mmHg 25%
    19:00 +30°C° 0 mm 3 mps 749 mmHg 37%
    20:00 +28°C° 0 mm 3 mps 750 mmHg 48%
    21:00 +25°C° 0 mm 3 mps 750 mmHg 59%
    22:00 +25°C° 0 mm 2 mps 750 mmHg 64%
    23:00 +24°C° 0 mm 2 mps 750 mmHg 70%

    23 August, Friday

    Time Temperature Precipitation Wind Pressure Humidity
    00:00 +23°C° 0 mm 2 mps 750 mmHg 75%
    01:00 +23°C° 0 mm 2 mps 750 mmHg 75%
    02:00 +23°C° 0 mm 1 mps 749 mmHg 76%
    03:00 +22°C° 0 mm 1 mps 749 mmHg 77%
    04:00 +23°C° 0 mm 1 mps 749 mmHg 75%
    05:00 +23°C° 0 mm 1 mps 749 mmHg 73%
    06:00 +21°C° 0 mm 0 mps 749 mmHg 71%
    07:00 +23°C° 0 mm 0 mps 750 mmHg 61%
    08:00 +26°C° 0 mm 0 mps 750 mmHg 51%
    09:00 +28°C° 0 mm 0 mps 750 mmHg 42%
    10:00 +31°C° 0 mm 1 mps 749 mmHg 36%
    11:00 +34°C° 0 mm 2 mps 749 mmHg 31%
    12:00 +35°C° 0 mm 2 mps 749 mmHg 26%
    13:00 +36°C° 0 mm 2 mps 749 mmHg 24%
    14:00 +36°C° 0 mm 2 mps 748 mmHg 22%
    15:00 +37°C° 0 mm 2 mps 748 mmHg 20%
    16:00 +36°C° 0 mm 3 mps 748 mmHg 23%
    17:00 +35°C° 0 mm 4 mps 748 mmHg 26%
    18:00 +33°C° 0 mm 4 mps 748 mmHg 29%
    19:00 +30°C° 0 mm 4 mps 748 mmHg 35%
    20:00 +28°C° 0 mm 3 mps 748 mmHg 42%
    21:00 +26°C° 0 mm 2 mps 748 mmHg 48%
    22:00 +25°C° 0 mm 2 mps 748 mmHg 49%
    23:00 +25°C° 0 mm 2 mps 748 mmHg 50%

    24 August, Saturday

    Time Temperature Precipitation Wind Pressure Humidity
    00:00 +24°C° 0 mm 1 mps 748 mmHg 51%
    01:00 +24°C° 0 mm 1 mps 748 mmHg 52%
    02:00 +24°C° 0 mm 1 mps 748 mmHg 53%
    03:00 +23°C° 0 mm 1 mps 748 mmHg 54%
    04:00 +23°C° 0 mm 1 mps 748 mmHg 53%
    05:00 +23°C° 0 mm 1 mps 748 mmHg 53%
    06:00 +24°C° 0 mm 1 mps 748 mmHg 53%
    07:00 +26°C° 0 mm 1 mps 748 mmHg 45%
    08:00 +29°C° 0 mm 1 mps 748 mmHg 38%
    09:00 +31°C° 0 mm 1 mps 749 mmHg 31%
    10:00 +33°C° 0 mm 1 mps 748 mmHg 28%
    11:00 +35°C° 0 mm 2 mps 748 mmHg 25%
    12:00 +37°C° 0 mm 2 mps 748 mmHg 21%
    13:00 +37°C° 0 mm 3 mps 748 mmHg 21%
    14:00 +38°C° 0 mm 3 mps 747 mmHg 20%
    15:00 +38°C° 0 mm 4 mps 747 mmHg 19%
    16:00 +36°C° 0 mm 5 mps 747 mmHg 24%
    17:00 +34°C° 0 mm 5 mps 747 mmHg 29%
    18:00 +33°C° 0 mm 6 mps 747 mmHg 34%
    19:00 +30°C° 0 mm 5 mps 747 mmHg 40%
    20:00 +28°C° 0 mm 4 mps 747 mmHg 46%
    21:00 +26°C° 0 mm 2 mps 748 mmHg 52%
    22:00 +25°C° 0 mm 2 mps 748 mmHg 55%
    23:00 +25°C° 0 mm 2 mps 747 mmHg 57%

    25 August, Sunday

    Time Temperature Precipitation Wind Pressure Humidity
    00:00 +24°C° 0 mm 2 mps 747 mmHg 60%
    01:00 +24°C° 0 mm 1 mps 747 mmHg 62%
    02:00 +23°C° 0 mm 1 mps 747 mmHg 64%
    03:00 +23°C° 0 mm 1 mps 747 mmHg 66%
    04:00 +23°C° 0 mm 1 mps 747 mmHg 65%
    05:00 +23°C° 0 mm 1 mps 747 mmHg 64%
    06:00 +23°C° 0 mm 1 mps 747 mmHg 63%
    07:00 +26°C° 0 mm 1 mps 747 mmHg 53%
    08:00 +28°C° 0 mm 1 mps 747 mmHg 44%
    09:00 +31°C° 0 mm 1 mps 747 mmHg 34%
    10:00 +34°C° 0 mm 2 mps 747 mmHg 30%
    11:00 +35°C° 0 mm 2 mps 747 mmHg 26%
    12:00 +37°C° 0 mm 2 mps 747 mmHg 22%
    13:00 +37°C° 0 mm 3 mps 746 mmHg 21%
    14:00 +37°C° 0 mm 4 mps 746 mmHg 21%
    15:00 +39°C° 0 mm 5 mps 746 mmHg 21%
    16:00 +36°C° 0 mm 5 mps 746 mmHg 26%
    17:00 +34°C° 0 mm 5 mps 746 mmHg 31%
    18:00 +32°C° 0 mm 5 mps 746 mmHg 36%
    19:00 +29°C° 0 mm 4 mps 747 mmHg 44%
    20:00 +28°C° 0 mm 3 mps 747 mmHg 52%
    21:00 +26°C° 0 mm 2 mps 748 mmHg 60%
    22:00 +25°C° 0 mm 2 mps 748 mmHg 60%
    23:00 +25°C° 0 mm 2 mps 748 mmHg 60%
    Show more